Weather observations for the past three days for
Mineral Wells, Mineral Wells Airport
Imperial (Metric)
Date Time (cdt) Wind (mph) Vis. (mi.) Weather Sky Cond. Temperature (ºF) Relative Humidity Wind Chill (°F) Heat Index (°F) Pressure Precipitation (in)
Air Dwpt 6 hour altimeter (in) sea level (mb) 1 hr 3 hr 6 hr
Max. Min.
20 01:53 N 3 10.00 Fair CLR 75.9 66.9 74% 77 30.11 1018.2
20 00:53 Calm 10.00 A Few Clouds FEW100 75.9 66.9 82.9 75 74% 77 30.12 1018.5
19 23:53 NE 3 10.00 Fair CLR 77 66 69% 79 30.13 1018.8
19 22:53 E 3 10.00 Mostly Cloudy BKN110 77 66 69% 79 30.12 1018.7
19 21:53 E 6 10.00 Fair CLR 78.1 66 67% 80 30.1 1017.9
19 20:53 SE 8 10.00 Fair CLR 79 66.9 67% 81 30.08 1017.1
19 19:53 E 9 10.00 Fair CLR 82 66 58% 84 30.06 1016.6
19 18:53 E 13 10.00 A Few Clouds FEW070 82.9 64.9 88 82 55% 85 30.05 1016.4
19 17:53 E 15 G 22 10.00 Mostly Cloudy FEW046 SCT055 BKN120 86 68 55% 89 30.04 1015.8
19 16:53 E 14 G 20 10.00 Overcast SCT040 BKN065 OVC100 87.1 70 57% 92 30.04 1015.8
19 15:53 E 14 10.00 Overcast SCT040 OVC090 86 69.1 57% 90 30.04 1016.0
19 14:53 E 15 G 21 10.00 Overcast OVC090 86 70 59% 91 30.05 1016.3
19 13:53 E 14 10.00 Overcast SCT033 BKN070 OVC085 84 69.1 61% 88 30.07 1017.0
19 12:53 E 14 10.00 Overcast BKN032 BKN040 OVC095 84.9 69.1 86 72 59% 89 30.08 1017.2
19 11:53 E 12 10.00 Mostly Cloudy SCT030 BKN037 82.9 69.1 63% 87 30.08 1017.0
19 10:53 E 12 10.00 Mostly Cloudy BKN027 82.9 69.1 63% 87 30.07 1016.8
19 09:53 E 8 10.00 Mostly Cloudy BKN024 80.1 70 71% 83 30.07 1016.7
19 08:53 E 12 10.00 Mostly Cloudy BKN016 78.1 70 76% 80 30.05 1016.2
19 07:53 E 9 10.00 Fair CLR 75 69.1 82% 75 30.03 1015.3
19 06:53 SE 8 10.00 Fair CLR 72 68 78.1 71.1 87% 29.99 1014.2
19 05:53 SE 7 10.00 Fair CLR 72 68 87% 29.97 1013.3
19 04:53 E 7 10.00 Fair CLR 71.1 66.9 87% 29.94 1012.5
19 03:53 E 5 10.00 Fair CLR 72 66.9 84% 29.94 1012.5
19 02:53 SE 7 10.00 Fair CLR 73.9 66.9 79% 29.94 1012.3
19 01:53 SE 9 10.00 Fair CLR 75.9 66 72% 77 29.93 1012.1
19 00:53 SE 16 G 29 10.00 Light Rain CLR 78.1 66.9 89.1 78.1 69% 80 29.93 1012.1
18 23:53 SE 18 G 31 10.00 Light Rain BKN044 80.1 69.1 69% 83 29.91 1011.4
18 22:53 SE 13 10.00 Light Rain SCT037 SCT046 82 69.1 65% 85 29.89 1010.8
18 21:53 SE 10 10.00 Light Rain CLR 82 69.1 65% 85 29.86 1009.6
18 20:53 SE 13 G 23 10.00 Light Rain CLR 84.9 68 57% 88 29.82 1008.3
18 19:53 SE 10 10.00 Light Rain CLR 86 68 55% 89 29.81 1008.1
18 18:53 SE 17 G 30 10.00 Light Rain CLR 89.1 66.9 90 82.9 48% 92 29.8 1007.6
18 17:53 SE 17 G 32 10.00 Light Rain CLR 90 66 45% 93 29.8 1007.5
18 16:53 SE 21 G 32 10.00 Light Rain and Breezy CLR 90 69.1 50% 95 29.81 1007.8
18 15:53 SE 17 G 28 10.00 Light Rain CLR 90 70 52% 95 29.82 1008.4
18 14:53 SE 14 10.00 Light Rain SCT047 SCT060 88 69.1 54% 92 29.84 1008.8
18 13:53 S 15 G 24 10.00 Light Rain OVC060 87.1 70 57% 92 29.85 1009.3
18 12:53 S 12 G 25 10.00 Light Rain BKN040 OVC050 82.9 70 86 75 65% 87 29.86 1009.7
18 11:53 S 20 G 31 10.00 Light Rain BKN037 84.9 70 61% 89 29.85 1009.4
18 10:53 S 16 G 30 10.00 Light Rain SCT022 BKN046 82 71.1 69% 86 29.85 1009.4
18 09:53 S 16 G 25 10.00 Light Rain SCT019 BKN032 OVC044 79 71.1 77% 82 29.87 1009.9
18 08:53 S 14 G 23 10.00 Light Rain SCT020 SCT027 OVC039 78.1 70 76% 80 29.86 1009.8
18 07:53 S 6 10.00 Light Rain SCT020 BKN030 BKN038 77 70 79% 79 29.87 1009.8
18 06:53 SE 12 10.00 Light Rain BKN021 BKN035 75 69.1 81 73.9 82% 75 29.83 1008.5
18 05:53 SE 13 10.00 Light Rain FEW023 73.9 68 82% 29.81 1007.8
18 04:53 S 14 G 21 10.00 Light Rain CLR 75 66.9 76% 76 29.8 1007.7
18 03:53 SE 13 10.00 Light Rain CLR 75.9 68 77% 77 29.79 1007.1
18 02:53 S 15 G 22 10.00 Light Rain CLR 77 69.1 77% 79 29.8 1007.3
18 01:53 SE 16 G 26 10.00 Light Rain FEW023 79 69.1 72% 82 29.8 1007.4
18 00:53 SE 21 G 37 10.00 Light Rain and Breezy SCT026 81 70 90 81 69% 84 29.81 1007.8
17 23:53 SE 20 G 33 10.00 Light Rain FEW029 82 71.1 69% 86 29.8 1007.7
17 22:53 SE 17 G 32 10.00 Light Rain FEW044 82 72 72% 87 29.78 1006.9
17 21:53 SE 18 G 25 10.00 Light Rain CLR 84 71.1 65% 89 29.76 1006.2
17 20:53 SE 17 G 31 10.00 Light Rain CLR 86 70 59% 91 29.75 1005.8
17 19:53 SE 15 10.00 Light Rain FEW050 88 71.1 57% 94 29.73 1005.1
17 18:53 SE 17 G 30 10.00 Light Rain CLR 90 71.1 93 88 54% 96 29.72 1004.8
17 17:53 SE 17 G 29 10.00 Light Rain FEW055 91 70 50% 97 29.72 1004.8
17 16:53 SE 18 G 29 10.00 Light Rain SCT055 SCT070 91 72 54% 99 29.73 1005.2
17 15:53 S 15 G 30 10.00 Light Rain FEW050 93 70 47% 99 29.74 1005.6
17 14:53 SE 18 G 32 10.00 Light Rain SCT049 91.9 70 49% 98 29.77 1006.4
17 13:53 S 21 G 32 10.00 Light Rain and Breezy BKN044 BKN055 91 70 50% 97 29.79 1007.3
17 12:53 SE 20 G 26 10.00 Light Rain SCT041 BKN055 90 71.1 90 75 54% 96 29.81 1007.9
17 11:53 S 15 G 24 10.00 Light Rain FEW038 88 71.1 57% 94 29.82 1008.2
17 10:53 S 16 G 28 10.00 Light Rain SCT032 BKN039 84.9 71.1 63% 90 29.82 1008.4
17 09:53 S 16 G 25 10.00 A Few Clouds FEW027 84 72 67% 90 29.82 1008.4
17 08:53 S 10 G 22 10.00 Mostly Cloudy BKN017 80.1 73 79% 84 29.82 1008.3
17 07:53 SE 12 G 21 10.00 Partly Cloudy SCT013 78.1 72 82% 80 29.81 1008.0
17 06:53 SE 12 10.00 Fair CLR 75 72 79 75 90% 74 29.81 1008.0
17 05:53 SE 8 10.00 Fair CLR 75 71.1 88% 75 29.8 1007.7
17 04:53 SE 7 10.00 Fair CLR 75 71.1 88% 75 29.8 1007.6
17 03:53 SE 10 10.00 Fair CLR 78.1 70 76% 80 29.79 1007.3
Date Time (cdt) Wind (mph) Vis. (mi.) Weather Sky Cond. Air Dwpt Max. Min. Relative Humidity Wind Chill (°F) Heat Index (°F) altimeter (in) sea level (mb) 1 hr 3 hr 6 hr
6 hour
Temperature (ºF) Pressure Precipitation (in)